Regional Weather Roundup
Issued by NWS

Home | Current Version | Previous Version | Graphics & Text | Print | Product List | Glossary On
Versions: 1 2 3 4 5 6 7 8 9 10 11 12 13 14 15 16 17 18 19 20 21 22 23 24 25 26 27 28 29 30 31 32 33 34 35 36 37 38 39 40 41 42 43 44 45 46 47 48 49 50
000
ASUS43 KLSX 260059
RWRMO

WEATHER SUMMARY FOR MISSOURI
NATIONAL WEATHER SERVICE SPRINGFIELD MO
800 PM CDT SAT APR 25 2015

NOTE: "FAIR" INDICATES FEW OR NO CLOUDS BELOW 12,000 FEET WITH NO
       SIGNIFICANT WEATHER AND/OR OBSTRUCTIONS TO VISIBILITY.
       CURRENT SKY AND/OR WEATHER CONDITIONS ARE NOT AVAILABLE FOR
       CHILLICOTHE AND FARMINGTON.

MOZ001>031-035>038-043-044-053-054-260200-
...NORTHERN AND WESTERN MISSOURI...

CITY           SKY/WX    TMP DP  RH WIND       PRES   REMARKS
KANSAS CTY INT CLOUDY    49  47  93 N12       29.74R
KANSAS C DTWN  CLOUDY    52  47  83 N12       29.73R
LEE`S SUMMIT   CLOUDY    50  48  93 N13       29.72R
ST JOSEPH      CLOUDY    50  46  86 N13       29.77R
CHILLICOTHE      N/A     51  48  89 NE14      29.74R
KIRKSVILLE     CLOUDY    48  47  96 NE15      29.74R

$$
MOZ066>068-077>081-088>096-101>105-260200-
...SOUTHWEST MISSOURI...

CITY           SKY/WX    TMP DP  RH WIND       PRES   REMARKS
SPRINGFIELD    PTCLDY    64  54  69 NW14      29.64R
JOPLIN         CLEAR     64  55  72 N12       29.66R

$$
MOZ032>034-039>042-045>050-055>058-069>072-260200-
...CENTRAL MISSOURI...

CITY           SKY/WX    TMP DP  RH WIND       PRES   REMARKS
COLUMBIA       LGT RAIN  55  54  96 N16       29.65R
JEFFERSON CITY CLOUDY    57  53  86 N9G18     29.64R
ROLLA          MOCLDY    62  56  80 W7        29.59R
SEDALIA        LGT RAIN  54  52  93 NW14      29.70R FOG
OSAGE BEACH    CLOUDY    59  54  82 NW9       29.64R

$$
MOZ051-052-059>065-260200-
...EAST CENTRAL MISSOURI...

CITY           SKY/WX    TMP DP  RH WIND       PRES   REMARKS
ST LOUIS INTL  CLOUDY    56  52  86 NE13      29.62R
SPIRIT OF STL  CLOUDY    56  53  90 N9        29.61R
ST CHARLES     CLOUDY    54  51  90 NE14      29.62R

$$
MOZ072>076-082>087-097>100-106>115-260200-
...SOUTH CENTRAL AND SOUTHEAST MISSOURI...

CITY           SKY/WX    TMP DP  RH WIND       PRES   REMARKS
CAPE GIRARDEAU CLOUDY    66  58  75 N8        29.56R
FARMINGTON     MOCLDY    63  55  77 NW12G21   29.63R
POPLAR BLUFF   CLOUDY    75  51  43 NW12      29.52R
WEST PLAINS    CLOUDY    70  51  51 NW13G18   29.60R

$$


USA.gov is the U.S. government's official web portal to all federal, state and local government web resources and services.